Wind_Speed
26 25 24 25 22 20 27 32 27 24 26 30 30 31 34 35 34 39 39 48 52 56 60 61 61 61 59 61 61 59 53 52 52 52 53 51 47 48 51 48 49 46 43 41 42 36 37 42 39
25 27 27 28 25 20 27 31 29 26 27 28 31 33 36 36 34 36 36 39 44 51 55 60 63 64 64 62 62 63 61 59 55 57 57 58 55 51 56 55 51 52 50 46 46 43 43 45 42
27 31 33 32 28 26 30 35 36 32 32 35 35 36 40 39 35 36 37 33 35 41 45 50 57 63 65 66 65 66 67 65 61 60 59 61 60 57 58 58 55 54 50 52 53 53 50 47 43
30 32 36 36 33 32 33 39 39 39 39 41 42 43 44 41 38 38 40 40 37 38 39 43 48 54 60 68 69 70 68 69 69 65 62 62 64 63 63 63 60 60 60 57 56 58 55 52 50
33 36 38 37 37 34 37 40 43 41 44 46 47 47 48 46 44 43 42 41 41 40 39 41 45 48 52 59 67 72 72 73 71 70 68 66 65 66 68 71 65 66 64 64 64 61 62 57 53
36 37 41 40 40 41 42 45 47 45 47 50 49 48 49 49 45 45 45 46 44 44 44 42 43 47 50 53 57 63 71 76 75 76 75 71 70 69 71 74 76 72 68 70 70 66 65 66 65
41 42 44 46 46 48 49 50 51 52 51 50 50 51 51 48 48 47 50 49 49 50 47 47 46 45 50 52 54 56 59 68 77 77 77 80 77 76 74 77 77 80 78 75 73 72 71 68 69
48 48 48 49 52 53 54 55 55 55 52 49 48 50 54 53 56 57 56 54 53 51 51 50 50 48 50 53 54 55 57 59 65 74 79 80 81 83 82 80 79 80 81 83 83 80 78 75 73
45 49 49 50 53 55 53 52 53 57 57 54 54 57 58 56 55 57 57 57 56 55 53 53 53 52 52 54 56 56 56 59 60 64 70 79 83 83 87 87 86 80 83 85 88 86 84 83 79
48 52 49 50 50 50 50 51 51 54 56 53 52 54 54 57 55 56 58 58 60 58 56 57 55 54 54 55 57 58 60 59 59 60 63 69 78 84 88 88 91 91 87 87 87 89 90 89 89
50 54 50 52 53 51 51 50 48 53 58 51 51 54 56 54 54 54 55 55 56 57 57 58 57 56 57 58 59 61 63 64 64 63 64 63 67 75 83 88 92 94 95 93 91 92 92 93 94
51 53 52 53 48 50 50 52 52 54 56 55 57 56 57 57 56 56 55 57 56 56 61 64 63 63 63 63 63 64 66 67 68 69 68 67 67 66 72 83 87 91 95 99 99 97 96 95 96
54 54 51 52 52 54 53 56 55 61 58 57 56 57 58 60 62 61 58 54 54 59 62 62 63 64 66 67 67 67 69 70 70 71 72 72 72 73 72 71 76 85 93 95 97 101 102 103 102
57 56 54 56 57 56 55 57 58 62 63 62 61 61 61 62 63 64 62 56 56 60 65 66 66 64 66 68 68 69 71 71 74 75 74 73 74 76 77 79 79 78 83 90 96 98 101 103 103
58 60 64 63 62 59 58 59 61 64 63 65 66 65 67 67 65 66 66 64 63 64 69 70 70 70 68 68 70 70 72 74 75 75 75 76 77 78 78 80 81 82 83 83 85 90 97 100 105
63 63 65 64 63 60 60 63 67 66 66 66 67 71 72 73 74 73 71 72 73 72 72 74 71 71 73 74 75 77 78 76 78 78 79 79 79 81 83 83 83 86 87 87 88 88 89 94 99
65 64 67 66 66 64 65 68 73 74 72 73 74 76 79 81 79 77 78 77 77 77 74 73 74 73 73 78 80 80 82 82 81 82 83 84 83 83 84 86 87 88 89 90 91 93 95 96 97
70 73 71 72 68 69 71 73 78 77 77 78 80 81 83 84 83 81 79 79 79 77 74 73 72 71 72 73 73 75 79 83 85 85 86 86 87 89 91 92 92 93 94 93 94 96 98 100 101
74 76 73 76 72 72 76 77 79 83 84 84 87 87 89 90 88 84 77 76 76 72 70 69 71 72 72 71 71 72 72 74 77 81 85 87 87 85 86 88 89 92 91 93 95 98 101 103 105
79 79 78 76 77 76 79 81 82 85 88 90 90 92 91 85 82 77 73 73 73 72 69 67 67 67 67 71 74 75 76 76 75 76 78 80 81 82 82 83 84 85 87 90 92 96 99 102 104
81 81 81 80 81 82 84 85 87 90 92 93 94 91 88 85 80 72 70 67 65 65 63 61 61 62 63 63 64 68 72 73 75 75 75 76 77 78 78 79 80 81 84 87 89 92 96 101 104
87 88 85 83 83 85 88 88 89 92 94 93 95 95 90 83 74 66 63 61 60 57 57 57 58 59 61 61 60 62 64 66 68 73 75 75 74 73 73 75 76 78 80 84 87 93 97 97 99
90 90 90 90 89 87 91 95 92 99 101 100 98 93 83 75 65 61 59 57 56 53 54 56 56 56 58 60 60 61 61 61 62 62 69 71 72 72 71 72 75 78 80 84 87 93 99 94 95
95 95 92 92 90 92 94 96 97 103 98 95 94 83 77 66 61 58 55 51 50 50 51 53 53 54 56 56 58 59 58 58 58 59 62 65 66 67 68 72 73 74 78 81 83 84 85 83 80
98 98 96 91 92 96 97 100 101 100 96 94 82 75 69 67 63 56 50 49 48 48 47 48 48 48 49 52 54 55 55 56 57 56 57 59 61 61 62 64 65 66 68 67 66 67 68 66 64
101 101 99 95 96 98 102 100 96 94 89 82 72 67 67 62 57 54 52 47 45 43 41 41 41 42 45 46 47 48 49 50 51 50 50 51 52 53 54 52 54 54 55 56 58 58 60 64 68
98 99 99 99 98 98 99 96 93 89 79 72 66 64 61 58 54 53 48 44 40 39 36 35 33 34 36 38 41 43 43 43 43 44 45 45 46 44 44 45 45 47 49 49 51 59 61 66 70
101 100 99 97 96 96 96 94 86 77 69 66 65 59 56 54 52 48 40 36 34 31 29 28 26 26 28 31 33 36 38 38 38 38 37 37 36 39 38 39 42 42 41 49 50 55 61 63 65
102 102 101 101 97 98 89 86 77 67 68 65 60 53 51 50 46 39 29 24 21 19 17 19 19 19 22 25 27 27 28 30 30 32 33 34 35 34 35 39 39 35 39 44 45 48 50 50 51
101 100 96 93 89 88 85 75 69 66 63 59 52 51 46 43 38 28 20 27 21 19 17 18 17 18 18 20 22 25 27 29 29 32 35 34 32 35 39 38 35 38 36 37 40 44 43 44 43
Wind_Direction
263 266 267 272 270 270 272 274 271 270 266 261 264 267 264 262 263 258 265 257 249 249 249 250 252 253 253 253 251 247 248 243 242 237 232 233 235 242 242 231 234 230 227 228 231 238 245 247 246
272 272 268 268 267 271 272 274 278 281 278 274 273 273 270 269 271 270 268 262 261 255 249 249 249 248 250 251 250 251 247 246 245 243 238 231 233 237 242 242 237 243 232 229 227 231 236 238 240
271 276 267 266 266 276 269 271 272 276 280 279 278 278 276 273 275 272 270 268 267 261 258 254 251 248 248 249 249 247 249 249 243 243 241 236 232 234 233 241 240 237 234 227 228 235 236 236 233
272 281 279 273 269 276 275 275 276 274 278 280 278 277 278 280 279 278 277 274 278 278 265 258 254 252 249 248 247 249 247 249 249 241 241 242 235 233 231 234 237 237 239 239 232 233 240 237 241
274 273 277 281 276 274 275 272 274 276 280 281 281 281 281 282 281 280 282 280 277 281 277 270 261 255 252 250 247 246 247 247 248 248 243 241 239 235 233 233 233 234 239 240 237 236 238 241 240
283 282 276 279 280 277 275 274 275 278 279 280 281 282 282 284 286 283 281 281 282 283 278 276 275 264 256 252 250 249 247 245 245 245 248 245 241 239 235 235 236 236 236 239 239 239 239 242 247
286 284 283 281 283 280 279 278 280 285 282 283 284 282 282 282 283 284 282 282 282 285 282 279 277 274 263 256 253 251 249 247 246 245 244 244 245 241 240 238 238 237 237 236 238 241 240 241 244
287 285 285 281 281 282 281 283 285 282 280 276 274 276 280 278 282 282 284 285 284 282 280 277 276 272 263 259 257 254 251 250 246 246 242 244 243 244 244 240 242 241 242 239 240 240 241 242 244
293 288 286 286 284 286 287 285 283 283 281 282 280 276 278 281 281 281 282 283 283 281 277 275 274 268 261 259 257 256 255 252 249 246 245 244 243 243 243 244 245 245 244 244 242 241 242 243 245
290 291 293 291 288 288 288 287 286 284 283 281 282 280 278 280 283 283 282 282 281 278 276 273 271 266 261 259 258 257 255 254 252 249 248 245 244 244 242 243 243 245 246 243 244 245 245 244 245
291 291 293 289 289 288 286 289 293 291 285 286 281 282 282 279 281 281 280 280 277 276 273 272 270 266 264 260 258 257 256 255 254 253 250 249 247 245 243 244 244 244 244 245 246 245 245 246 245
289 291 289 289 289 287 288 290 293 290 293 289 284 285 286 283 281 285 287 282 277 274 273 273 270 266 263 261 259 257 254 254 254 254 252 252 249 249 247 245 245 246 246 245 246 247 246 247 248
288 289 288 288 285 287 291 292 294 289 290 288 288 288 289 289 289 290 290 285 282 276 273 272 269 267 265 262 262 260 257 253 253 255 255 254 252 251 249 248 248 248 246 247 248 248 248 247 248
283 286 288 287 287 287 291 293 294 291 291 288 288 287 289 291 291 291 290 285 281 278 275 274 270 266 264 261 259 258 257 256 255 254 255 256 256 255 253 252 250 249 248 248 248 249 250 249 249
281 283 286 288 286 286 290 294 294 292 293 292 290 291 292 292 293 292 289 285 283 281 278 275 273 271 269 267 264 261 258 256 256 256 254 255 255 255 254 254 254 254 253 251 251 250 250 251 251
280 282 282 285 287 287 289 292 290 290 291 293 294 292 291 291 293 293 290 287 285 283 281 276 274 272 269 266 264 262 259 257 254 253 254 254 254 255 255 255 255 254 254 255 254 252 252 252 251
283 284 284 284 284 285 287 290 290 290 292 293 293 294 294 294 294 293 291 290 285 284 282 278 276 274 269 265 263 261 259 257 256 255 254 254 253 253 255 255 255 256 257 256 256 255 255 254 253
280 282 283 279 282 282 286 289 288 291 293 294 294 294 294 294 295 295 292 291 290 286 282 280 276 272 268 265 260 259 257 256 256 255 255 255 256 257 257 257 257 258 259 259 259 259 258 258 257
277 278 280 280 279 280 284 286 288 291 293 294 294 296 296 296 298 297 294 293 288 283 279 277 274 270 267 263 259 256 256 256 256 256 256 256 257 257 259 260 259 259 260 260 260 260 260 259 259
277 277 275 279 280 279 282 284 288 290 292 293 294 295 296 297 298 297 294 292 288 283 279 275 272 268 265 260 257 255 255 255 255 255 255 256 257 258 259 260 260 260 261 261 260 260 260 260 260
273 274 277 278 277 279 281 284 287 290 292 294 297 300 298 301 299 297 294 290 285 280 276 273 268 265 264 262 259 256 255 254 253 253 255 256 257 258 259 260 261 261 261 261 262 262 262 262 263
273 274 277 279 278 281 283 286 289 290 292 295 299 299 300 301 298 295 292 287 283 279 275 271 268 264 261 260 258 255 254 254 256 254 254 255 256 257 259 260 261 263 264 264 265 264 266 268 269
272 274 277 279 279 283 285 287 290 293 293 295 298 302 301 299 296 295 292 286 283 278 274 270 266 263 260 259 257 255 255 255 254 255 254 254 255 257 260 262 263 264 266 266 267 270 271 274 274
272 274 277 279 280 284 287 289 293 293 295 297 299 301 300 298 297 295 293 288 286 282 276 272 268 265 260 258 255 253 253 253 253 254 254 253 254 257 261 263 264 266 268 269 270 274 278 278 277
272 274 277 281 284 285 286 291 293 294 294 297 301 301 301 301 299 299 295 294 289 283 279 275 270 265 260 256 254 253 253 252 252 254 254 254 256 259 261 263 265 268 272 275 276 278 283 287 289
270 273 276 280 282 285 287 293 292 294 296 297 299 300 302 301 303 301 299 295 290 285 279 274 268 262 256 253 252 251 250 250 251 253 254 256 258 259 263 267 271 275 277 281 286 289 293 297 298
271 274 276 280 282 285 287 290 293 294 297 297 299 302 301 303 303 301 298 295 288 282 278 271 267 261 255 252 249 247 247 248 249 250 253 255 257 261 265 272 275 279 282 284 288 290 294 295 298
272 274 276 280 283 286 286 288 290 295 295 298 300 301 300 301 301 300 299 294 287 280 276 271 265 258 253 248 244 243 244 245 247 249 250 253 259 265 269 266 273 276 275 282 284 287 291 296 300
271 274 275 278 284 284 287 287 291 292 296 299 300 299 297 297 296 298 295 293 282 276 268 265 259 253 246 242 240 239 238 239 242 247 252 260 263 263 255 264 267 269 277 283 286 291 294 298 302
269 272 275 279 282 284 283 286 288 295 296 297 300 297 294 293 290 285 276 281 264 262 262 259 254 253 249 248 248 248 249 248 249 255 260 260 258 250 253 258 262 270 280 289 293 296 302 305 306
Height
10764 10763 10764 10764 10766 10767 10766 10764 10764 10766 10767 10767 10766 10765 10763 10764 10764 10762 10758 10758 10760 10759 10758 10760 10761 10763 10765 10767 10770 10773 10776 10779 10781 10785 10786 10790 10793 10794 10794 10797 10798 10800 10801 10803 10805 10808 10808 10809 10811
10758 10757 10757 10759 10760 10762 10759 10757 10757 10760 10759 10758 10758 10757 10756 10757 10756 10754 10752 10750 10750 10749 10749 10749 10751 10752 10754 10757 10759 10762 10765 10769 10772 10774 10777 10780 10783 10786 10786 10788 10792 10793 10795 10796 10799 10800 10800 10801 10804
10753 10751 10749 10752 10753 10755 10754 10749 10749 10751 10750 10750 10750 10748 10747 10749 10749 10746 10744 10744 10742 10740 10740 10739 10739 10741 10743 10745 10748 10751 10754 10757 10761 10764 10766 10771 10773 10776 10778 10779 10782 10785 10789 10790 10791 10792 10793 10794 10795
10747 10745 10741 10744 10747 10747 10748 10741 10741 10742 10742 10741 10742 10740 10738 10739 10740 10738 10735 10735 10735 10730 10729 10730 10729 10729 10730 10732 10735 10738 10741 10745 10748 10752 10755 10759 10762 10765 10768 10771 10772 10775 10778 10780 10782 10784 10786 10786 10788
10740 10738 10734 10736 10738 10741 10738 10735 10732 10734 10733 10731 10732 10730 10728 10728 10729 10728 10727 10725 10725 10722 10720 10719 10719 10718 10718 10719 10721 10724 10727 10731 10736 10739 10743 10746 10749 10753 10756 10759 10762 10764 10766 10769 10772 10774 10776 10778 10779
10732 10731 10728 10727 10728 10729 10728 10725 10724 10727 10726 10722 10722 10721 10717 10717 10720 10718 10715 10714 10715 10713 10711 10710 10708 10708 10707 10707 10708 10710 10712 10716 10720 10725 10729 10733 10737 10741 10742 10745 10748 10752 10755 10757 10760 10763 10767 10768 10769
10723 10721 10720 10719 10718 10718 10717 10717 10716 10714 10715 10713 10711 10709 10707 10709 10707 10708 10703 10703 10704 10702 10700 10699 10697 10696 10696 10696 10696 10697 10698 10701 10705 10710 10715 10719 10723 10726 10729 10732 10734 10738 10742 10745 10748 10751 10754 10756 10758
10715 10712 10711 10711 10708 10706 10707 10705 10704 10702 10702 10703 10703 10700 10694 10698 10697 10695 10693 10691 10692 10690 10689 10686 10685 10685 10684 10685 10685 10685 10686 10687 10689 10693 10697 10702 10706 10711 10714 10718 10721 10723 10727 10730 10734 10737 10740 10743 10746
10707 10703 10702 10701 10698 10696 10694 10694 10694 10690 10690 10691 10691 10691 10686 10685 10686 10683 10681 10680 10678 10677 10676 10674 10673 10672 10672 10672 10672 10673 10674 10675 10676 10678 10681 10684 10688 10693 10697 10700 10703 10708 10711 10715 10717 10721 10725 10728 10732
10697 10693 10694 10691 10688 10687 10685 10682 10681 10679 10676 10680 10680 10676 10675 10673 10673 10673 10670 10667 10665 10664 10661 10660 10660 10659 10660 10659 10659 10660 10661 10661 10663 10664 10666 10668 10671 10675 10679 10683 10688 10692 10695 10699 10702 10704 10708 10712 10717
10687 10684 10685 10680 10678 10677 10676 10672 10671 10667 10659 10668 10667 10664 10663 10662 10661 10660 10658 10655 10653 10651 10647 10645 10647 10648 10646 10646 10646 10647 10647 10647 10649 10650 10652 10654 10656 10658 10661 10665 10670 10674 10678 10681 10684 10687 10691 10696 10700
10677 10674 10674 10671 10668 10666 10665 10661 10662 10656 10649 10652 10652 10653 10649 10648 10647 10648 10646 10643 10640 10638 10634 10631 10632 10632 10631 10630 10631 10632 10633 10634 10635 10635 10637 10639 10641 10643 10645 10648 10651 10655 10658 10661 10664 10669 10674 10678 10682
10666 10664 10663 10660 10658 10657 10653 10650 10650 10640 10642 10639 10640 10639 10639 10634 10631 10632 10631 10628 10626 10621 10617 10615 10615 10616 10615 10615 10615 10616 10617 10618 10619 10620 10622 10624 10626 10628 10630 10632 10634 10637 10640 10642 10644 10649 10653 10656 10662
10654 10652 10651 10649 10647 10647 10642 10638 10636 10628 10627 10626 10626 10625 10624 10623 10620 10616 10612 10612 10611 10605 10598 10596 10595 10598 10598 10596 10597 10599 10600 10601 10603 10605 10606 10608 10610 10611 10612 10614 10616 10619 10621 10623 10626 10630 10633 10637 10641
10644 10641 10637 10635 10634 10635 10631 10624 10619 10615 10614 10611 10609 10610 10608 10606 10604 10601 10598 10594 10592 10587 10582 10577 10577 10579 10582 10582 10582 10582 10582 10583 10586 10588 10590 10592 10593 10594 10594 10596 10599 10601 10602 10605 10609 10611 10613 10615 10619
10632 10631 10624 10622 10621 10619 10617 10611 10603 10601 10600 10597 10593 10591 10590 10587 10587 10584 10580 10575 10572 10568 10564 10559 10560 10560 10560 10560 10560 10560 10561 10564 10566 10569 10571 10572 10574 10576 10577 10579 10581 10582 10585 10588 10590 10592 10593 10594 10596
10618 10620 10614 10610 10607 10606 10602 10597 10588 10585 10586 10581 10577 10573 10570 10569 10570 10565 10560 10554 10549 10544 10541 10539 10537 10536 10536 10534 10536 10538 10541 10543 10545 10548 10550 10552 10554 10557 10558 10561 10563 10565 10567 10568 10569 10571 10572 10573 10574
10606 10604 10601 10595 10597 10592 10587 10584 10573 10572 10570 10566 10560 10557 10553 10550 10549 10545 10538 10530 10524 10521 10519 10517 10516 10515 10513 10512 10514 10516 10518 10520 10523 10526 10528 10531 10535 10537 10540 10542 10544 10545 10547 10549 10550 10550 10552 10550 10552
10590 10589 10586 10579 10583 10580 10573 10569 10564 10555 10551 10547 10542 10537 10533 10528 10525 10520 10514 10508 10502 10497 10494 10493 10492 10491 10492 10494 10494 10495 10497 10500 10503 10505 10507 10511 10514 10517 10519 10521 10522 10523 10526 10527 10527 10527 10526 10525 10526
10573 10572 10569 10567 10563 10564 10559 10553 10552 10543 10535 10530 10525 10521 10516 10511 10504 10499 10492 10485 10479 10473 10472 10471 10469 10468 10469 10470 10473 10476 10479 10482 10484 10486 10488 10491 10494 10496 10498 10499 10502 10504 10505 10505 10504 10503 10501 10499 10500
10554 10554 10552 10553 10548 10546 10544 10540 10535 10526 10518 10511 10505 10498 10493 10489 10483 10477 10470 10464 10459 10453 10450 10449 10449 10449 10449 10451 10455 10457 10460 10463 10466 10469 10471 10474 10477 10478 10479 10480 10482 10483 10481 10481 10482 10480 10476 10473 10471
10538 10535 10535 10534 10531 10529 10522 10524 10520 10509 10500 10493 10489 10481 10473 10467 10463 10457 10451 10445 10439 10435 10431 10430 10430 10431 10432 10433 10437 10440 10443 10446 10449 10453 10456 10458 10460 10461 10462 10463 10464 10464 10463 10462 10461 10453 10450 10453 10449
10522 10518 10518 10517 10514 10512 10506 10500 10504 10490 10482 10477 10470 10462 10454 10449 10443 10437 10433 10427 10422 10418 10415 10412 10413 10415 10416 10418 10420 10423 10427 10431 10433 10436 10440 10443 10445 10446 10447 10448 10447 10445 10445 10443 10436 10433 10428 10433 10429
10502 10501 10501 10500 10498 10496 10489 10483 10485 10472 10466 10460 10453 10445 10436 10430 10426 10422 10415 10409 10404 10400 10396 10394 10395 10398 10399 10401 10404 10408 10411 10415 10418 10421 10424 10427 10429 10431 10433 10431 10430 10429 10425 10424 10420 10415 10411 10409 10406
10483 10483 10482 10482 10480 10476 10473 10468 10459 10455 10450 10444 10437 10427 10419 10411 10406 10403 10399 10394 10388 10384 10381 10378 10378 10380 10382 10385 10388 10393 10397 10400 10403 10406 10409 10411 10414 10416 10415 10414 10413 10411 10409 10407 10404 10400 10395 10390 10383
10466 10466 10464 10464 10464 10460 10455 10451 10443 10435 10434 10428 10422 10414 10406 10397 10391 10385 10382 10378 10373 10369 10367 10365 10365 10366 10368 10370 10374 10378 10382 10386 10390 10394 10396 10398 10399 10400 10400 10400 10399 10399 10395 10392 10388 10383 10377 10371 10362
10449 10448 10445 10446 10445 10444 10440 10433 10426 10423 10419 10413 10408 10401 10392 10385 10379 10373 10367 10363 10360 10357 10356 10354 10354 10355 10357 10360 10363 10367 10371 10374 10378 10380 10384 10385 10387 10388 10388 10389 10387 10385 10382 10379 10375 10370 10363 10356 10346
10430 10429 10428 10426 10428 10427 10423 10417 10409 10410 10405 10399 10393 10387 10381 10375 10368 10363 10357 10353 10350 10348 10347 10346 10347 10348 10349 10351 10354 10357 10361 10364 10367 10370 10372 10374 10376 10376 10376 10376 10375 10374 10371 10368 10363 10357 10350 10341 10331
10412 10411 10409 10409 10410 10407 10406 10402 10397 10395 10390 10384 10380 10375 10370 10364 10360 10355 10350 10347 10345 10343 10342 10342 10342 10342 10343 10345 10347 10350 10353 10356 10359 10361 10362 10364 10365 10366 10367 10367 10366 10364 10362 10357 10352 10344 10337 10328 10318
10392 10392 10391 10391 10394 10391 10387 10388 10383 10383 10377 10372 10369 10363 10359 10355 10352 10348 10346 10343 10342 10341 10340 10340 10339 10339 10340 10341 10342 10344 10346 10348 10350 10352 10354 10354 10355 10357 10358 10358 10357 10355 10351 10346 10340 10334 10326 10317 10308